Location: Twentynine Palms Airport
(34.1316°N, 115.9458°W)
Time: 02:58:53
(UTC-07:00)

Amateur Radio Satellites - All Passes

Search period start: 20 September 2014 02:28
Search period end: 21 September 2014 02:28
Location: Twentynine Palms Airport, 34.1316°N, 115.9458°W

Satellite Date Start Highest point End Downlink Frequencies (MHz)
Time Altitude Azimuth
Oscar 16 20 Sep 02:28:59 02:34:09 75° 285° (WNW) 02:39:16 437.025 USB, Beacon 2401.1428
JAS-1B 20 Sep 02:37:22 02:42:57 56° 101° (E) 02:48:39 435.800 - 435.900 CW/SSB
AO-Echo 20 Sep 02:38:23 02:43:14 63° 101° (ESE) 02:48:13 ?
Saudisat 1A 20 Sep 02:51:27 02:55:40 45° 245° (WSW) 02:59:51 436.775 MHz
Gurwin Techsat 1B 20 Sep 03:04:17 03:09:20 43° 99° (E) 03:14:21 435.225 FM
ITAMSAT 1 20 Sep 03:13:16 03:18:28 70° 285° (WNW) 03:23:39 435.822 SSB
Uribyol 2 20 Sep 03:17:25 03:22:34 60° 286° (WNW) 03:27:41 436.500 FM
ISS 20 Sep 03:21:37 03:23:49 16° 329° (NNW) 03:26:01 145.800 FM
KITSAT 1 20 Sep 03:21:40 03:28:01 25° 47° (NE) 03:34:18 435.175 FM
Oscar 19 20 Sep 03:30:32 03:34:09 20° 293° (WNW) 03:37:46 437.125 CW, 437.150 USB
AO-7 20 Sep 03:31:07 03:35:31 15° 93° (E) 03:39:53 29.400 - 29.500 MHz
TMSAT-1 20 Sep 03:40:50 03:46:09 73° 102° (ESE) 03:51:25 436.925 FM
AO-27 20 Sep 03:48:57 03:53:29 31° 290° (WNW) 03:58:00 436.795 MHz FM
Uosat F 20 Sep 03:51:27 03:53:27 12° 92° (E) 03:55:26 435.120 FM
OPAL 20 Sep 03:54:27 03:58:54 30° 67° (ENE) 04:03:24 ?
PANSAT 20 Sep 04:08:07 04:11:31 30° 188° (S) 04:14:55 not established
AO-Echo 20 Sep 04:19:32 04:21:28 12° 295° (WNW) 04:23:26 ?
RS-15 20 Sep 04:28:58 04:40:06 83° 299° (WNW) 04:51:05 29.354 - 29.394 USB, Beacon 29.352 USB
JAS-1B 20 Sep 04:29:57 04:33:07 15° 297° (WNW) 04:36:17 435.800 - 435.900 CW/SSB
Gurwin Techsat 1B 20 Sep 04:45:09 04:48:57 20° 293° (WNW) 04:52:44 435.225 FM
KITSAT 1 20 Sep 05:16:03 05:24:05 72° 246° (WSW) 05:32:05 435.175 FM
AO-7 20 Sep 05:20:45 05:29:05 88° 288° (WNW) 05:37:23 29.400 - 29.500 MHz
TMSAT-1 20 Sep 05:23:21 05:25:23 12° 297° (WNW) 05:27:24 436.925 FM
Uosat F 20 Sep 05:27:36 05:32:33 60° 286° (WNW) 05:37:29 435.120 FM
OPAL 20 Sep 05:33:18 05:37:41 28° 262° (W) 05:42:06 ?
PANSAT 20 Sep 05:48:58 05:51:12 15° 200° (SSW) 05:53:25 not established
Hamsat 20 Sep 06:12:29 06:16:31 42° 99° (E) 06:20:30 145.90 MHz
STRAND 1 20 Sep 06:14:48 06:19:29 38° 71° (ENE) 06:24:10 ?
JAS-2 20 Sep 06:17:15 06:23:24 60° 101° (ESE) 06:30:20 435.800 - 435.900 CW/SSB, 435.910 FM
RS-15 20 Sep 06:46:08 06:54:16 23° 323° (NW) 07:02:26 29.354 - 29.394 USB, Beacon 29.352 USB
SO-50 20 Sep 06:51:10 06:55:37 36° 55° (NE) 07:00:05 436.795 FM
MaSat-1 20 Sep 06:59:50 07:03:07 18° 102° (ESE) 07:06:26 437.345 MHz
AO-7 20 Sep 07:15:54 07:20:42 17° 305° (NW) 07:25:31 29.400 - 29.500 MHz
SO-67 20 Sep 07:17:19 07:20:19 27° 97° (E) 07:23:18 435.3500 MHz FM
Hamsat 20 Sep 07:50:04 07:52:04 13° 293° (WNW) 07:54:02 145.90 MHz
STRAND 1 20 Sep 07:55:04 07:58:44 20° 265° (W) 08:02:26 ?
JAS-2 20 Sep 08:03:46 08:08:05 20° 293° (WNW) 08:12:45 435.800 - 435.900 CW/SSB, 435.910 FM
ISS 20 Sep 08:16:15 08:18:13 15° 30° (NNE) 08:20:10 145.800 FM
UOSAT-12 20 Sep 08:25:44 08:29:43 27° 53° (NE) 08:33:39 437.025 FM, 437.400 FM
SO-50 20 Sep 08:32:12 08:35:57 23° 250° (WSW) 08:39:43 436.795 FM
MaSat-1 20 Sep 08:34:42 08:39:29 46° 296° (WNW) 08:44:16 437.345 MHz
SO-67 20 Sep 08:51:34 08:53:03 12° 290° (WNW) 08:54:32 435.3500 MHz FM
HO-68 20 Sep 09:14:01 09:20:48 44° 100° (E) 09:27:32 435.675 MHz FM
Oscar 11 20 Sep 09:25:16 09:27:35 14° 93° (E) 09:29:52 145.825 FM, Beacon 2401.500 USB
UKube-1 20 Sep 09:41:26 09:45:18 31° 98° (E) 09:49:09 145.840 MHz, 145.915 MHz
ISS 20 Sep 09:51:55 09:55:12 61° 226° (SW) 09:58:28 145.800 FM
UOSAT-12 20 Sep 10:05:46 10:09:49 29° 248° (WSW) 10:13:47 437.025 FM, 437.400 FM
FUNcube-1 20 Sep 10:51:32 10:56:07 60° 100° (E) 11:00:36 145.950 - 145.970 MHz USB
Oscar 11 20 Sep 10:59:50 11:03:53 39° 287° (WNW) 11:07:54 145.825 FM, Beacon 2401.500 USB
HO-68 20 Sep 11:02:06 11:08:13 32° 295° (WNW) 11:14:20 435.675 MHz FM
UKube-1 20 Sep 11:18:10 11:21:15 19° 292° (WNW) 11:24:20 145.840 MHz, 145.915 MHz
RS-15 20 Sep 11:23:35 11:31:48 23° 37° (NE) 11:40:11 29.354 - 29.394 USB, Beacon 29.352 USB
Sapphire 20 Sep 11:29:00 11:34:08 48° 111° (ESE) 11:39:20 437.095 MHz 1200 baud AX-25 AFSK
PCSat 20 Sep 11:55:37 12:01:01 87° 295° (WNW) 12:06:28 145.825 MHz
Oscar 16 20 Sep 12:07:03 12:08:36 11° 63° (ENE) 12:10:08 437.025 USB, Beacon 2401.1428
FUNcube-1 20 Sep 12:30:24 12:31:54 12° 295° (WNW) 12:33:24 145.950 - 145.970 MHz USB
ITAMSAT 1 20 Sep 12:51:42 12:53:50 13° 63° (ENE) 12:55:59 435.822 SSB
Uribyol 2 20 Sep 12:54:55 12:57:43 15° 64° (ENE) 13:00:32 436.500 FM
Oscar 19 20 Sep 13:03:27 13:08:18 42° 72° (ENE) 13:13:11 437.125 CW, 437.150 USB
Sapphire 20 Sep 13:13:45 13:17:47 21° 307° (NW) 13:21:51 437.095 MHz 1200 baud AX-25 AFSK
JAS-1B 20 Sep 13:16:44 13:24:41 42° 70° (ENE) 13:31:29 435.800 - 435.900 CW/SSB
AO-27 20 Sep 13:24:25 13:28:46 28° 69° (ENE) 13:33:07 436.795 MHz FM
RS-15 20 Sep 13:34:52 13:46:06 80° 61° (ENE) 13:57:49 29.354 - 29.394 USB, Beacon 29.352 USB
Oscar 16 20 Sep 13:42:03 13:47:14 76° 258° (WSW) 13:52:27 437.025 USB, Beacon 2401.1428
PCSat 20 Sep 13:43:16 13:45:12 12° 313° (NW) 13:47:07 145.825 MHz
AO-Echo 20 Sep 13:47:59 13:52:36 53° 74° (ENE) 13:57:11 ?
Gurwin Techsat 1B 20 Sep 14:21:42 14:26:45 47° 72° (ENE) 14:31:49 435.225 FM
AO-7 20 Sep 14:26:53 14:31:51 18° 55° (NE) 14:36:49 29.400 - 29.500 MHz
ITAMSAT 1 20 Sep 14:27:35 14:32:42 68° 258° (WSW) 14:37:52 435.822 SSB
Uribyol 2 20 Sep 14:31:36 14:36:39 57° 259° (W) 14:41:46 436.500 FM
Oscar 19 20 Sep 14:44:08 14:47:46 19° 266° (W) 14:51:25 437.125 CW, 437.150 USB
TMSAT-1 20 Sep 14:57:50 15:03:06 78° 76° (ENE) 15:08:24 436.925 FM
Uosat F 20 Sep 15:01:49 15:03:50 12° 64° (ENE) 15:05:52 435.120 FM
AO-27 20 Sep 15:03:44 15:08:09 29° 263° (W) 15:12:36 436.795 MHz FM
JAS-1B 20 Sep 15:07:07 15:15:07 37° 261° (W) 15:22:03 435.800 - 435.900 CW/SSB
AO-Echo 20 Sep 15:29:50 15:31:38 12° 267° (W) 15:33:27 ?
RS-15 20 Sep 15:49:17 15:57:16 23° 258° (WSW) 16:05:31 29.354 - 29.394 USB, Beacon 29.352 USB
Gurwin Techsat 1B 20 Sep 16:03:27 16:06:54 18° 266° (W) 16:10:22 435.225 FM
AO-7 20 Sep 16:15:11 16:23:31 90° 72° (ENE) 16:31:51 29.400 - 29.500 MHz
JAS-2 20 Sep 16:30:10 16:32:19 13° 64° (ENE) 16:34:28 435.800 - 435.900 CW/SSB, 435.910 FM
Uosat F 20 Sep 16:37:05 16:42:01 65° 258° (WSW) 16:47:00 435.120 FM
Saudisat 1A 20 Sep 16:53:58 16:58:20 72° 300° (WNW) 17:02:45 436.775 MHz
MaSat-1 20 Sep 16:57:07 16:58:16 11° 53° (NE) 16:59:21 437.345 MHz
Hamsat 20 Sep 17:02:47 17:05:59 20° 70° (ENE) 17:09:12 145.90 MHz
OPAL 20 Sep 17:46:08 17:51:18 76° 287° (WNW) 17:56:21 ?
KITSAT 1 20 Sep 17:46:41 17:52:50 25° 104° (ESE) 17:58:58 435.175 FM
JAS-2 20 Sep 18:11:38 18:16:54 61° 259° (WSW) 18:22:01 435.800 - 435.900 CW/SSB, 435.910 FM
AO-7 20 Sep 18:12:53 18:17:06 15° 268° (W) 18:21:20 29.400 - 29.500 MHz
STRAND 1 20 Sep 18:30:05 18:33:30 18° 94° (E) 18:36:54 ?
MaSat-1 20 Sep 18:32:04 18:35:14 31° 254° (WSW) 18:37:59 437.345 MHz
Hamsat 20 Sep 18:37:58 18:41:44 28° 263° (W) 18:45:31 145.90 MHz
SO-67 20 Sep 19:18:49 19:22:14 67° 259° (W) 19:25:41 435.3500 MHz FM
KITSAT 1 20 Sep 19:39:35 19:47:34 62° 300° (WNW) 19:55:35 435.175 FM
HO-68 20 Sep 19:39:58 19:45:14 23° 62° (ENE) 19:50:29 435.675 MHz FM
STRAND 1 20 Sep 20:07:58 20:12:50 44° 288° (WNW) 20:17:41 ?
Sapphire 20 Sep 20:21:31 20:25:21 19° 52° (NE) 20:29:08 437.095 MHz 1200 baud AX-25 AFSK
UKube-1 20 Sep 20:34:19 20:37:11 18° 68° (ENE) 20:40:03 145.840 MHz, 145.915 MHz
PCSat 20 Sep 20:47:39 20:52:34 34° 57° (ENE) 20:57:26 145.825 MHz
SO-50 20 Sep 21:03:16 21:06:54 25° 111° (ESE) 21:10:36 436.795 FM
HO-68 20 Sep 21:25:19 21:32:20 61° 257° (WSW) 21:39:24 435.675 MHz FM
KITSAT 1 20 Sep 21:40:56 21:44:42 14° 322° (NW) 21:48:29 435.175 FM
FUNcube-1 20 Sep 21:44:31 21:48:20 30° 71° (ENE) 21:52:15 145.950 - 145.970 MHz USB
Oscar 11 20 Sep 21:50:34 21:54:55 84° 258° (WSW) 21:59:19 145.825 FM, Beacon 2401.500 USB
Sapphire 20 Sep 22:03:48 22:09:05 54° 248° (WSW) 22:14:20 437.095 MHz 1200 baud AX-25 AFSK
UKube-1 20 Sep 22:09:11 22:13:05 33° 262° (W) 22:17:01 145.840 MHz, 145.915 MHz
PCSat 20 Sep 22:31:17 22:35:48 28° 253° (WSW) 22:40:18 145.825 MHz
UOSAT-12 20 Sep 22:34:25 22:37:27 18° 109° (ESE) 22:40:31 437.025 FM, 437.400 FM
SO-50 20 Sep 22:43:28 22:47:19 28° 307° (NW) 22:51:15 436.795 FM
FUNcube-1 20 Sep 23:21:31 23:24:43 20° 266° (W) 23:28:00 145.950 - 145.970 MHz USB
UOSAT-12 21 Sep 00:12:52 00:17:13 41° 304° (WNW) 00:21:40 437.025 FM, 437.400 FM
PANSAT 21 Sep 00:23:55 00:26:44 20° 164° (SSE) 00:29:34 not established
ISS 21 Sep 00:55:23 00:58:10 25° 130° (SE) 01:00:57 145.800 FM
Oscar 19 21 Sep 01:19:42 01:23:26 20° 95° (E) 01:27:09 437.125 CW, 437.150 USB
Saudisat 1A 21 Sep 01:24:28 01:28:23 30° 55° (NE) 01:32:16 436.775 MHz
AO-27 21 Sep 01:42:35 01:45:01 13° 93° (E) 01:47:28 436.795 MHz FM
RS-15 21 Sep 01:49:21 01:53:39 13° 98° (E) 01:57:54 29.354 - 29.394 USB, Beacon 29.352 USB
Oscar 16 21 Sep 01:57:44 02:02:47 52° 100° (E) 02:07:47 437.025 USB, Beacon 2401.1428
AO-Echo 21 Sep 01:59:05 02:03:01 24° 96° (E) 02:07:02 ?
PANSAT 21 Sep 02:03:00 02:06:29 33° 176° (S) 02:09:58 not established
